| time (UTC) | temp C | wind direction | speed KPH | gust KPH | rain 1hr cm | rain 24hr cm | rain mn cm | humidity % | barometer mb |
| 20260510191554 | 12 | 348 | 3.2 | 4.8 | 0.00 | 0.00 | 0.00 | 70 | 1012.4 |
| 20260510190051 | 13 | 360 | 0.0 | 6.4 | 0.00 | 0.00 | 0.00 | 68 | 1012.4 |
| 20260510184551 | 13 | 13 | 4.8 | 8.0 | 0.00 | 0.00 | 0.00 | 66 | 1012.1 |
| 20260510183055 | 14 | 9 | 3.2 | 8.0 | 0.00 | 0.00 | 0.00 | 66 | 1012.1 |
| 20260510181549 | 14 | 107 | 0.0 | 6.4 | 0.00 | 0.00 | 0.00 | 64 | 1011.9 |
| 20260510180052 | 15 | 110 | 8.0 | 12.9 | 0.00 | 0.00 | 0.00 | 63 | 1011.9 |
| 20260510174548 | 15 | 91 | 9.7 | 14.5 | 0.00 | 0.00 | 0.00 | 63 | 1012.0 |
| 20260510173054 | 16 | 105 | 4.8 | 9.7 | 0.00 | 0.00 | 0.00 | 61 | 1012.0 |
| 20260510171556 | 17 | 121 | 4.8 | 14.5 | 0.00 | 0.00 | 0.00 | 60 | 1011.9 |
| 20260510170051 | 17 | 126 | 8.0 | 14.5 | 0.00 | 0.00 | 0.00 | 59 | 1012.1 |
| 20260510164548 | 17 | 96 | 3.2 | 8.0 | 0.00 | 0.00 | 0.00 | 54 | 1012.2 |
| 20260510163044 | 17 | 76 | 1.6 | 6.4 | 0.00 | 0.00 | 0.00 | 52 | 1012.3 |
| 20260510161548 | 18 | 103 | 4.8 | 12.9 | 0.00 | 0.00 | 0.00 | 52 | 1012.3 |
| 20260510160049 | 18 | 94 | 4.8 | 14.5 | 0.00 | 0.00 | 0.00 | 53 | 1012.6 |
| 20260510154549 | 18 | 78 | 8.0 | 16.1 | 0.00 | 0.00 | 0.00 | 53 | 1012.5 |
| 20260510153048 | 18 | 91 | 8.0 | 16.1 | 0.00 | 0.00 | 0.00 | 54 | 1012.8 |
| 20260510151546 | 18 | 111 | 8.0 | 17.7 | 0.00 | 0.00 | 0.00 | 51 | 1012.6 |
| 20260510150046 | 18 | 135 | 1.6 | 11.3 | 0.00 | 0.00 | 0.00 | 50 | 1012.7 |
| 20260510144550 | 19 | 84 | 9.7 | 20.9 | 0.00 | 0.00 | 0.00 | 49 | 1012.7 |
| 20260510143051 | 19 | 55 | 8.0 | 20.9 | 0.00 | 0.00 | 0.00 | 50 | 1012.9 |
| 20260510141600 | 20 | 51 | 4.8 | 16.1 | 0.00 | 0.00 | 0.00 | 48 | 1012.8 |
| 20260510140041 | 18 | 57 | 11.3 | 17.7 | 0.00 | 0.00 | 0.00 | 51 | 1013.0 |
| 20260510134555 | 19 | 74 | 6.4 | 16.1 | 0.00 | 0.00 | 0.00 | 48 | 1013.0 |
| 20260510133107 | 19 | 360 | 8.0 | 17.7 | 0.00 | 0.00 | 0.00 | 48 | 1013.0 |
| 20260510131554 | 18 | 106 | 6.4 | 16.1 | 0.00 | 0.00 | 0.00 | 49 | 1013.4 |
| 20260510130045 | 18 | 88 | 1.6 | 20.9 | 0.00 | 0.00 | 0.00 | 46 | 1013.5 |
| 20260510124548 | 18 | 48 | 4.8 | 14.5 | 0.00 | 0.00 | 0.00 | 46 | 1013.6 |
| 20260510123100 | 17 | 49 | 6.4 | 19.3 | 0.00 | 0.00 | 0.00 | 48 | 1013.8 |
| 20260510121547 | 18 | 96 | 6.4 | 20.9 | 0.00 | 0.00 | 0.00 | 49 | 1013.8 |
| 20260510120045 | 17 | 119 | 9.7 | 19.3 | 0.00 | 0.00 | 0.00 | 49 | 1014.1 |
| 20260510114543 | 17 | 59 | 3.2 | 16.1 | 0.00 | 0.00 | 0.00 | 50 | 1014.2 |
| 20260510113053 | 17 | 71 | 6.4 | 12.9 | 0.00 | 0.00 | 0.00 | 55 | 1014.4 |
| 20260510111546 | 16 | 101 | 8.0 | 19.3 | 0.00 | 0.00 | 0.00 | 54 | 1014.7 |
| 20260510110052 | 16 | 40 | 4.8 | 14.5 | 0.00 | 0.00 | 0.00 | 54 | 1015.1 |
| 20260510104554 | 16 | 96 | 4.8 | 16.1 | 0.00 | 0.00 | 0.00 | 57 | 1015.3 |
| 20260510103050 | 16 | 105 | 8.0 | 17.7 | 0.00 | 0.00 | 0.00 | 58 | 1015.5 |
| 20260510101555 | 15 | 19 | 3.2 | 14.5 | 0.00 | 0.00 | 0.00 | 57 | 1015.7 |
| 20260510100043 | 15 | 26 | 4.8 | 12.9 | 0.00 | 0.00 | 0.00 | 57 | 1016.0 |
| 20260510094553 | 14 | 321 | 1.6 | 12.9 | 0.00 | 0.00 | 0.00 | 60 | 1016.1 |
| 20260510093051 | 13 | 325 | 4.8 | 11.3 | 0.00 | 0.00 | 0.00 | 62 | 1016.4 |
| 20260510091551 | 13 | 313 | 4.8 | 11.3 | 0.00 | 0.00 | 0.00 | 61 | 1016.4 |
| 20260510090048 | 14 | 319 | 4.8 | 14.5 | 0.00 | 0.00 | 0.00 | 60 | 1016.6 |
| 20260510084546 | 14 | 194 | 6.4 | 17.7 | 0.00 | 0.00 | 0.00 | 63 | 1016.7 |
| 20260510083043 | 14 | 200 | 9.7 | 16.1 | 0.00 | 0.00 | 0.00 | 64 | 1016.9 |
| 20260510081553 | 13 | 140 | 9.7 | 17.7 | 0.00 | 0.00 | 0.00 | 63 | 1017.0 |
| 20260510080042 | 12 | 76 | 6.4 | 14.5 | 0.00 | 0.00 | 0.00 | 60 | 1017.1 |
| 20260510074549 | 12 | 116 | 8.0 | 14.5 | 0.00 | 0.00 | 0.00 | 60 | 1017.1 |
| 20260510073104 | 12 | 138 | 8.0 | 14.5 | 0.00 | 0.00 | 0.00 | 62 | 1017.0 |
| 20260510071553 | 12 | 115 | 4.8 | 16.1 | 0.00 | 0.00 | 0.00 | 62 | 1017.2 |
| 20260510070051 | 11 | 43 | 8.0 | 14.5 | 0.00 | 0.00 | 0.00 | 61 | 1017.2 |
| 20260510064556 | 11 | 29 | 4.8 | 12.9 | 0.00 | 0.00 | 0.00 | 61 | 1017.3 |
| 20260510063050 | 11 | 35 | 4.8 | 16.1 | 0.00 | 0.00 | 0.00 | 62 | 1017.3 |
| 20260510061550 | 11 | 45 | 8.0 | 17.7 | 0.00 | 0.00 | 0.00 | 62 | 1017.5 |
| 20260510060049 | 11 | 71 | 8.0 | 14.5 | 0.00 | 0.00 | 0.00 | 64 | 1017.6 |
| 20260510054544 | 10 | 79 | 11.3 | 16.1 | 0.00 | 0.00 | 0.00 | 67 | 1017.7 |
| 20260510053042 | 8 | 33 | 8.0 | 14.5 | 0.00 | 0.00 | 0.00 | 74 | 1017.6 |
| 20260510051554 | 7 | 49 | 6.4 | 16.1 | 0.00 | 0.00 | 0.00 | 80 | 1017.6 |
| 20260510050049 | 7 | 82 | 4.8 | 9.7 | 0.00 | 0.00 | 0.00 | 85 | 1017.6 |
| 20260510044552 | 7 | 78 | 3.2 | 8.0 | 0.00 | 0.00 | 0.00 | 87 | 1017.7 |
| 20260510043053 | 7 | 0 | 0.0 | 3.2 | 0.00 | 0.00 | 0.00 | 88 | 1017.7 |
| 20260510041548 | 6 | 105 | 1.6 | 4.8 | 0.00 | 0.00 | 0.00 | 89 | 1017.7 |
| 20260510040050 | 6 | 0 | 0.0 | 3.2 | 0.00 | 0.00 | 0.00 | 89 | 1017.8 |
| 20260510034543 | 6 | 0 | 0.0 | 0.0 | 0.00 | 0.00 | 0.00 | 89 | 1017.7 |
| 20260510033045 | 6 | 0 | 0.0 | 0.0 | 0.00 | 0.00 | 0.00 | 88 | 1017.7 |
| 20260510031553 | 6 | 0 | 0.0 | 4.8 | 0.00 | 0.00 | 0.00 | 88 | 1017.6 |
| 20260510030044 | 6 | 76 | 1.6 | 4.8 | 0.00 | 0.00 | 0.00 | 88 | 1017.6 |
| 20260510024548 | 5 | 0 | 0.0 | 3.2 | 0.00 | 0.00 | 0.00 | 88 | 1017.6 |
| 20260510023050 | 5 | 0 | 0.0 | 0.0 | 0.00 | 0.00 | 0.00 | 87 | 1017.7 |
| 20260510021550 | 5 | 0 | 0.0 | 1.6 | 0.00 | 0.00 | 0.00 | 87 | 1017.7 |
| 20260510020051 | 5 | 55 | 1.6 | 4.8 | 0.00 | 0.00 | 0.00 | 86 | 1017.8 |
| 20260510014550 | 5 | 0 | 0.0 | 4.8 | 0.00 | 0.00 | 0.00 | 85 | 1017.8 |
| 20260510013049 | 5 | 55 | 1.6 | 4.8 | 0.00 | 0.00 | 0.00 | 85 | 1017.9 |
| 20260510011546 | 6 | 55 | 0.0 | 3.2 | 0.00 | 0.00 | 0.00 | 85 | 1018.0 |
| 20260510010044 | 7 | 55 | 1.6 | 4.8 | 0.00 | 0.00 | 0.00 | 84 | 1018.0 |
| 20260510004549 | 7 | 0 | 0.0 | 3.2 | 0.00 | 0.00 | 0.00 | 84 | 1018.1 |
| 20260510003049 | 7 | 0 | 0.0 | 4.8 | 0.00 | 0.00 | 0.00 | 84 | 1018.1 |
| 20260510001552 | 7 | 0 | 0.0 | 0.0 | 0.00 | 0.00 | 0.00 | 84 | 1018.2 |
| 20260510000052 | 7 | 0 | 0.0 | 3.2 | 0.00 | 0.00 | 0.00 | 84 | 1018.4 |
| 20260509234546 | 7 | 54 | 1.6 | 6.4 | 0.00 | 0.00 | 0.00 | 83 | 1018.4 |
| 20260509233048 | 7 | 36 | 3.2 | 6.4 | 0.00 | 0.00 | 0.00 | 83 | 1018.5 |
| 20260509231550 | 7 | 34 | 1.6 | 6.4 | 0.00 | 0.00 | 0.00 | 83 | 1018.6 |
| 20260509230043 | 7 | 63 | 3.2 | 6.4 | 0.00 | 0.00 | 0.00 | 83 | 1018.6 |
| 20260509224557 | 7 | 85 | 0.0 | 8.0 | 0.00 | 0.00 | 0.00 | 83 | 1018.7 |
| 20260509223048 | 7 | 80 | 1.6 | 9.7 | 0.00 | 0.00 | 0.00 | 83 | 1018.9 |
| 20260509221600 | 7 | 78 | 4.8 | 9.7 | 0.00 | 0.00 | 0.00 | 83 | 1019.0 |
| 20260509220048 | 7 | 46 | 6.4 | 14.5 | 0.00 | 0.00 | 0.00 | 83 | 1018.9 |
| 20260509214548 | 7 | 47 | 6.4 | 14.5 | 0.00 | 0.00 | 0.00 | 83 | 1019.2 |
| 20260509213049 | 8 | 46 | 3.2 | 12.9 | 0.00 | 0.00 | 0.00 | 83 | 1019.4 |
| 20260509211546 | 8 | 77 | 6.4 | 16.1 | 0.00 | 0.00 | 0.00 | 82 | 1019.4 |
| 20260509210049 | 8 | 59 | 8.0 | 16.1 | 0.00 | 0.00 | 0.00 | 82 | 1019.2 |
| 20260509204551 | 8 | 67 | 6.4 | 17.7 | 0.00 | 0.00 | 0.00 | 82 | 1019.2 |
| 20260509203046 | 8 | 80 | 8.0 | 16.1 | 0.00 | 0.00 | 0.00 | 83 | 1019.2 |
| 20260509201558 | 8 | 57 | 8.0 | 20.9 | 0.00 | 0.00 | 0.00 | 82 | 1019.2 |
| 20260509200058 | 8 | 65 | 6.4 | 19.3 | 0.00 | 0.00 | 0.00 | 82 | 1019.2 |
| 20260509194545 | 8 | 78 | 9.7 | 17.7 | 0.00 | 0.00 | 0.00 | 82 | 1019.1 |
| 20260509193048 | 8 | 77 | 8.0 | 20.9 | 0.00 | 0.00 | 0.00 | 82 | 1019.0 |